Weather History for Akron, OH

Change the Weather History Date:

Tuesday, April 9, 2013

  Actual Average (KCAK) Record (KCAK)
Temperature  
Mean Temperature 62 °F 47 °F  
Max Temperature 79 °F 57 °F 80 °F (2013)
Min Temperature 46 °F 37 °F 15 °F (1972)
Degree Days  
Heating Degree Days 3 18  
Month to date heating degree days 178  
Since 1 July heating degree days 5573  
Cooling Degree Days 0 0  
Month to date cooling degree days 0  
Year to date cooling degree days 0  
Growing Degree Days 12 (Base 50)    
Moisture  
Dew Point 49 °F    
Average Humidity 57    
Maximum Humidity 80    
Minimum Humidity 42    
Precipitation  
Precipitation 0.00 in 0.12 in 1.19 in (1983)
Month to date precipitation 1.07  
Year to date precipitation 8.97  
Snow  
Snow 0.00 in 0.20 in - ()
Month to date snowfall 1.4  
Since 1 July snowfall 46.1  
Snow Depth -    
Sea Level Pressure  
Sea Level Pressure 29.98 in    
Wind  
Wind Speed 9 mph (SW)    
Max Wind Speed 21 mph    
Max Gust Speed 29 mph    
Visibility 10 miles    
Events      
T = Trace of Precipitation, MM = Missing Value Source: NWS Daily Summary

Daily Weather History Graph

Daily Weather History Graph

Search for Another Location

Airport:

Trip Planner

Search our weather history database for the weather conditions in past years. The results will help you decide how hot, cold, wet, or windy it might be!

Date:

Astronomy

Apr. 09, 2013 Rise Set
Actual Time 6:55 AM EDT 7:59 PM EDT
Civil Twilight 6:27 AM EDT 8:27 PM EDT
Nautical Twilight 5:54 AM EDT 9:01 PM EDT
Astronomical Twilight 5:19 AM EDT 9:36 PM EDT
Moon 6:17 AM EDT (4/9) 7:33 PM EDT (4/9)
Length of Visible Light 14h 00m
Length of Day
13h 03m
Waning Crescent, 1% of the Moon is Illuminated
Apr 9
Waning Crescent
Apr 10
New
Apr 18
First Quarter
Apr 25
Full
May 2
Last Quarter

Hourly Weather History & Observations

Time (EDT) Temp. Dew Point Humidity Pressure Visibility Wind Dir Wind Speed Gust Speed Precip Events Conditions
12:54 AM 64.0 °F 52.0 °F 65% 29.96 in 10.0 mi WSW 8.1 mph - N/A   Overcast
1:54 AM 63.0 °F 53.1 °F 70% 29.98 in 10.0 mi West 10.4 mph - N/A   Overcast
2:54 AM 61.0 °F 50.0 °F 67% 29.99 in 10.0 mi WNW 8.1 mph - N/A   Mostly Cloudy
3:54 AM 57.9 °F 45.0 °F 62% 30.01 in 10.0 mi WNW 6.9 mph - N/A   Mostly Cloudy
4:54 AM 57.0 °F 43.0 °F 59% 30.03 in 10.0 mi NNW 4.6 mph - N/A   Mostly Cloudy
5:54 AM 52.0 °F 43.0 °F 71% 30.06 in 10.0 mi North 5.8 mph - N/A   Mostly Cloudy
6:54 AM 46.9 °F 41.0 °F 80% 30.09 in 10.0 mi North 3.5 mph - N/A   Clear
7:54 AM 48.0 °F 42.1 °F 80% 30.09 in 7.0 mi NE 8.1 mph - N/A   Clear
8:54 AM 50.0 °F 43.0 °F 77% 30.09 in 8.0 mi Calm Calm - N/A   Clear
9:54 AM 53.1 °F 43.0 °F 69% 30.09 in 10.0 mi ESE 4.6 mph - N/A   Clear
10:54 AM 59.0 °F 45.0 °F 60% 30.07 in 10.0 mi South 9.2 mph - N/A   Clear
11:54 AM 64.9 °F 46.0 °F 50% 30.04 in 10.0 mi South 9.2 mph - N/A   Clear
12:54 PM 68.0 °F 50.0 °F 52% 30.02 in 10.0 mi South 8.1 mph - N/A   Overcast
1:54 PM 73.0 °F 52.0 °F 48% 29.98 in 10.0 mi South 11.5 mph 17.3 mph N/A   Partly Cloudy
2:54 PM 73.9 °F 54.0 °F 50% 29.94 in 10.0 mi SSW 10.4 mph - N/A   Overcast
3:54 PM 77.0 °F 54.0 °F 45% 29.91 in 10.0 mi SSW 16.1 mph 21.9 mph N/A   Mostly Cloudy
4:54 PM 77.0 °F 53.1 °F 43% 29.89 in 10.0 mi SSW 15.0 mph 24.2 mph N/A   Mostly Cloudy
5:54 PM 78.1 °F 53.1 °F 42% 29.88 in 10.0 mi SSW 19.6 mph 28.8 mph N/A   Scattered Clouds
6:54 PM 78.1 °F 53.1 °F 42% 29.88 in 10.0 mi SW 17.3 mph 23.0 mph N/A   Mostly Cloudy
7:54 PM 75.9 °F 51.1 °F 42% 29.88 in 10.0 mi SW 20.7 mph 27.6 mph N/A   Clear
8:54 PM 75.0 °F 51.1 °F 43% 29.90 in 10.0 mi SW 12.7 mph - N/A   Partly Cloudy
9:54 PM 73.0 °F 51.1 °F 46% 29.90 in 10.0 mi SW 12.7 mph - N/A   Clear
10:54 PM 72.0 °F 51.1 °F 48% 29.90 in 10.0 mi SW 12.7 mph 20.7 mph N/A   Mostly Cloudy
11:54 PM 71.1 °F 52.0 °F 51% 29.89 in 10.0 mi SW 9.2 mph - N/A   Overcast